SKY MUSTER 2

导读

SKY MUSTER 2(“天牧二号”)是澳大利亚的军用通信卫星,于澳大利亚时间2016年10月05日发射。它属于澳大利亚国家宽带网(NBN)的Sky Muster系列,旨在为澳大利亚偏远地区提供宽带互联网服务,同时支持澳大利亚国防军的军事通信需求,该卫星定点于地球静止轨道,大幅提升了澳大利亚偏远区域的通信覆盖能力与国防通信韧性,是澳大利亚航天和通信基础设施建设的重要组成部分。

基本信息
目录编号:
41794
目录名称:
SKY MUSTER 2
国际标识:
2016-060B
轨道中心:
EARTH
卫星名称:
SKY MUSTER 2
卫星全名:
--
卫星状态:
在轨 (已飞行3631 天)
发射日期:
2016-10-05 UTC
国别 :
澳大利亚 (AU)
星等 :
--
该卫星已列入 空间交会检测服务 Space Conjunction Data Service (SCDS) ,当前飞行风险评估等级: 无高风险
轨道信息
数据来源 国际轨道数据 AOE轨道数据
星历时间 2026-09-13T17:08:34+0800
18小时前
查看轨道信息
2026-09-13T01:00:00+0800
1天前
查看轨道信息
半长轴 42164.644km 42164.812km
偏心率 0.000151 0.0001532
轨道倾角 0.015° 0.009°
近地点辐角 298.466° 312.872°
升交点赤经 226.324° 209.263°
平近点角 109.534° 229.380°
近地点 35780.14km 35780.215km
远地点 35792.874km 35793.135km
周期 1436.092分钟 1436.101分钟
每日圈数 1.002721 1.002715
详细信息
使用方式:
暂无
2D轨道图
3D轨道图
轨道高度分析图
轨道倾角分析图
轨道综合分析图
查看轨道综合分析图
与全量物体交会距离演化趋势 订阅飞行安全评估服务
与全量物体交会风险概率演化趋势 订阅飞行安全评估服务